Time,TemperatureF,DewpointF,PressureIn,WindDirection,WindDirectionDegrees,WindSpeedMPH,WindSpeedGustMPH,Humidity,HourlyPrecipIn,Conditions,Clouds,dailyrainin,SoftwareType,DateUTC
2013-01-25 00:00:00,49.2,48.0,30.20,North,10,0.0,1.0,96,0.00,,,0.01,weatherlink.com 1.10,2013-01-25 08:00:00,
2013-01-25 00:15:00,49.7,49.0,30.21,North,10,0.0,1.0,96,0.00,,,0.00,weatherlink.com 1.10,2013-01-25 08:15:00,
2013-01-25 00:30:00,49.9,49.0,30.22,North,10,0.0,0.0,96,0.00,,,0.00,weatherlink.com 1.10,2013-01-25 08:30:00,
2013-01-25 00:45:00,49.3,48.0,30.22,NNE,33,0.0,1.0,96,0.00,,,0.00,weatherlink.com 1.10,2013-01-25 08:45:00,
2013-01-25 01:00:00,49.0,48.0,30.22,NNE,33,0.0,0.0,96,0.00,,,0.00,weatherlink.com 1.10,2013-01-25 09:00:00,
2013-01-25 01:15:00,49.2,48.0,30.22,NNE,33,0.0,0.0,96,0.00,,,0.00,weatherlink.com 1.10,2013-01-25 09:15:00,
2013-01-25 01:31:00,49.5,48.0,30.21,NNE,33,0.0,0.0,96,0.00,,,0.00,weatherlink.com 1.10,2013-01-25 09:31:00,
2013-01-25 01:45:00,49.7,49.0,30.21,NNE,33,0.0,0.0,96,0.00,,,0.00,weatherlink.com 1.10,2013-01-25 09:45:00,
2013-01-25 02:00:00,49.7,49.0,30.22,NNE,33,0.0,0.0,96,0.00,,,0.00,weatherlink.com 1.10,2013-01-25 10:00:00,
2013-01-25 02:15:00,49.7,49.0,30.21,NNE,33,0.0,0.0,96,0.00,,,0.00,weatherlink.com 1.10,2013-01-25 10:15:00,
2013-01-25 02:31:00,49.7,49.0,30.21,NNE,33,0.0,0.0,96,0.00,,,0.00,weatherlink.com 1.10,2013-01-25 10:31:00,
2013-01-25 02:45:00,49.1,48.0,30.20,NNE,33,0.0,0.0,96,0.00,,,0.00,weatherlink.com 1.10,2013-01-25 10:45:00,
2013-01-25 03:00:00,48.7,48.0,30.20,NNE,33,0.0,0.0,96,0.00,,,0.00,weatherlink.com 1.10,2013-01-25 11:00:00,
2013-01-25 03:15:00,47.9,47.0,30.20,NNE,33,0.0,0.0,96,0.00,,,0.00,weatherlink.com 1.10,2013-01-25 11:15:00,
2013-01-25 03:30:00,47.4,46.0,30.20,NNE,33,0.0,0.0,96,0.00,,,0.00,weatherlink.com 1.10,2013-01-25 11:30:00,
2013-01-25 03:45:00,47.5,47.0,30.20,NNE,33,0.0,0.0,96,0.00,,,0.00,weatherlink.com 1.10,2013-01-25 11:45:00,
2013-01-25 04:01:00,48.0,47.0,30.20,NNE,33,0.0,0.0,96,0.00,,,0.00,weatherlink.com 1.10,2013-01-25 12:01:00,
2013-01-25 04:16:00,48.5,48.0,30.20,NNE,33,0.0,0.0,96,0.00,,,0.00,weatherlink.com 1.10,2013-01-25 12:16:00,
2013-01-25 04:31:00,48.8,48.0,30.20,NNE,33,0.0,0.0,96,0.00,,,0.00,weatherlink.com 1.10,2013-01-25 12:31:00,
2013-01-25 04:46:00,48.9,48.0,30.20,NNE,33,0.0,0.0,96,0.00,,,0.00,weatherlink.com 1.10,2013-01-25 12:46:00,
2013-01-25 05:01:00,48.8,48.0,30.19,NNE,33,0.0,0.0,96,0.00,,,0.00,weatherlink.com 1.10,2013-01-25 13:01:00,
2013-01-25 05:16:00,49.1,48.0,30.19,NNE,33,0.0,0.0,96,0.00,,,0.00,weatherlink.com 1.10,2013-01-25 13:16:00,
2013-01-25 05:31:00,48.8,48.0,30.18,NNE,33,0.0,0.0,96,0.00,,,0.00,weatherlink.com 1.10,2013-01-25 13:31:00,
2013-01-25 05:46:00,48.8,48.0,30.18,NNE,33,0.0,0.0,96,0.00,,,0.00,weatherlink.com 1.10,2013-01-25 13:46:00,
2013-01-25 06:01:00,49.1,48.0,30.18,NNE,33,0.0,0.0,96,0.00,,,0.00,weatherlink.com 1.10,2013-01-25 14:01:00,
2013-01-25 06:16:00,48.9,48.0,30.19,NNE,33,0.0,0.0,96,0.00,,,0.00,weatherlink.com 1.10,2013-01-25 14:16:00,
2013-01-25 06:34:00,48.7,48.0,30.19,NNE,33,0.0,0.0,96,0.00,,,0.00,weatherlink.com 1.10,2013-01-25 14:34:00,
2013-01-25 06:46:00,48.9,48.0,30.19,NNE,33,0.0,0.0,97,0.00,,,0.00,weatherlink.com 1.10,2013-01-25 14:46:00,
2013-01-25 07:01:00,48.6,48.0,30.20,NNE,33,0.0,0.0,96,0.00,,,0.00,weatherlink.com 1.10,2013-01-25 15:01:00,
2013-01-25 07:16:00,48.5,48.0,30.18,NNE,33,0.0,0.0,96,0.00,,,0.00,weatherlink.com 1.10,2013-01-25 15:16:00,
2013-01-25 07:31:00,48.7,48.0,30.18,NNE,33,0.0,0.0,96,0.00,,,0.00,weatherlink.com 1.10,2013-01-25 15:31:00,
2013-01-25 07:46:00,48.5,48.0,30.19,NNE,33,0.0,0.0,96,0.00,,,0.00,weatherlink.com 1.10,2013-01-25 15:46:00,
2013-01-25 08:01:00,48.5,48.0,30.19,NNE,33,0.0,0.0,96,0.00,,,0.00,weatherlink.com 1.10,2013-01-25 16:01:00,
2013-01-25 08:16:00,48.4,47.0,30.18,NNE,33,0.0,0.0,96,0.00,,,0.00,weatherlink.com 1.10,2013-01-25 16:16:00,
2013-01-25 08:31:00,48.6,48.0,30.18,NNE,33,0.0,0.0,96,0.00,,,0.00,weatherlink.com 1.10,2013-01-25 16:31:00,
2013-01-25 08:46:00,48.9,48.0,30.18,NNE,33,0.0,0.0,97,0.00,,,0.00,weatherlink.com 1.10,2013-01-25 16:46:00,
2013-01-25 09:01:00,49.7,49.0,30.18,NNE,33,0.0,1.0,97,0.00,,,0.00,weatherlink.com 1.10,2013-01-25 17:01:00,
2013-01-25 09:16:00,50.6,50.0,30.18,NNE,33,0.0,0.0,97,0.00,,,0.00,weatherlink.com 1.10,2013-01-25 17:16:00,
2013-01-25 09:31:00,52.2,51.0,30.18,NNE,33,0.0,2.0,97,0.00,,,0.00,weatherlink.com 1.10,2013-01-25 17:31:00,
2013-01-25 09:46:00,52.9,52.0,30.19,NNE,33,0.0,2.0,97,0.00,,,0.00,weatherlink.com 1.10,2013-01-25 17:46:00,
2013-01-25 10:01:00,53.3,53.0,30.19,NNE,33,0.0,1.0,97,0.00,,,0.00,weatherlink.com 1.10,2013-01-25 18:01:00,
2013-01-25 10:16:00,54.4,53.0,30.19,SSE,150,1.0,1.0,96,0.00,,,0.00,weatherlink.com 1.10,2013-01-25 18:16:00,
2013-01-25 10:31:00,55.6,55.0,30.20,SSE,151,0.0,3.0,96,0.00,,,0.00,weatherlink.com 1.10,2013-01-25 18:31:00,
2013-01-25 10:47:00,56.2,55.0,30.20,SSE,151,0.0,1.0,95,0.00,,,0.00,weatherlink.com 1.10,2013-01-25 18:47:00,
2013-01-25 11:01:00,57.1,55.0,30.19,SSE,151,0.0,2.0,91,0.00,,,0.00,weatherlink.com 1.10,2013-01-25 19:01:00,
2013-01-25 11:16:00,58.0,55.0,30.18,SSE,151,0.0,0.0,88,0.00,,,0.00,weatherlink.com 1.10,2013-01-25 19:16:00,
2013-01-25 11:31:00,58.6,55.0,30.18,ESE,109,1.0,1.0,86,0.00,,,0.00,weatherlink.com 1.10,2013-01-25 19:31:00,
2013-01-25 11:46:00,59.1,53.0,30.16,South,184,1.0,3.0,81,0.00,,,0.00,weatherlink.com 1.10,2013-01-25 19:46:00,
2013-01-25 12:01:00,59.5,54.0,30.16,East,83,0.0,3.0,81,0.00,,,0.00,weatherlink.com 1.10,2013-01-25 20:01:00,
2013-01-25 12:17:00,59.5,55.0,30.16,ENE,78,1.0,2.0,85,0.00,,,0.00,weatherlink.com 1.10,2013-01-25 20:17:00,
2013-01-25 12:31:00,59.0,55.0,30.16,ENE,71,1.0,4.0,86,0.00,,,0.00,weatherlink.com 1.10,2013-01-25 20:31:00,
2013-01-25 12:46:00,58.7,55.0,30.15,ENE,76,0.0,1.0,87,0.00,,,0.00,weatherlink.com 1.10,2013-01-25 20:46:00,
2013-01-25 13:02:00,58.7,55.0,30.14,SSE,165,0.0,4.0,87,0.00,,,0.00,weatherlink.com 1.10,2013-01-25 21:02:00,
2013-01-25 13:17:00,58.5,54.0,30.13,SSW,208,0.0,2.0,86,0.00,,,0.00,weatherlink.com 1.10,2013-01-25 21:17:00,
2013-01-25 13:32:00,58.5,54.0,30.13,ENE,67,0.0,4.0,85,0.00,,,0.00,weatherlink.com 1.10,2013-01-25 21:32:00,
2013-01-25 13:47:00,58.7,54.0,30.13,ENE,67,0.0,2.0,85,0.00,,,0.00,weatherlink.com 1.10,2013-01-25 21:47:00,
2013-01-25 14:02:00,59.0,54.0,30.12,ENE,66,1.0,2.0,83,0.00,,,0.00,weatherlink.com 1.10,2013-01-25 22:02:00,
2013-01-25 14:17:00,59.2,54.0,30.12,East,80,0.0,2.0,82,0.00,,,0.00,weatherlink.com 1.10,2013-01-25 22:17:00,
2013-01-25 14:32:00,59.3,54.0,30.12,East,100,1.0,3.0,81,0.00,,,0.00,weatherlink.com 1.10,2013-01-25 22:32:00,
2013-01-25 14:47:00,59.1,54.0,30.12,East,100,0.0,2.0,84,0.00,,,0.00,weatherlink.com 1.10,2013-01-25 22:47:00,
2013-01-25 15:02:00,58.7,54.0,30.12,East,93,0.0,3.0,84,0.00,,,0.00,weatherlink.com 1.10,2013-01-25 23:02:00,
2013-01-25 15:17:00,58.1,53.0,30.12,ENE,66,2.0,3.0,82,0.00,,,0.00,weatherlink.com 1.10,2013-01-25 23:17:00,
2013-01-25 15:32:00,58.0,53.0,30.11,East,88,0.0,3.0,83,0.00,,,0.00,weatherlink.com 1.10,2013-01-25 23:32:00,
2013-01-25 15:47:00,58.2,54.0,30.10,ENE,61,0.0,0.0,85,0.00,,,0.00,weatherlink.com 1.10,2013-01-25 23:47:00,
2013-01-25 16:02:00,58.2,54.0,30.09,ENE,61,0.0,0.0,87,0.00,,,0.00,weatherlink.com 1.10,2013-01-26 00:02:00,
2013-01-25 16:17:00,57.5,54.0,30.08,ENE,61,0.0,0.0,89,0.00,,,0.00,weatherlink.com 1.10,2013-01-26 00:17:00,
2013-01-25 16:32:00,56.7,54.0,30.08,ENE,61,0.0,0.0,90,0.00,,,0.00,weatherlink.com 1.10,2013-01-26 00:32:00,
2013-01-25 16:47:00,56.1,54.0,30.08,ENE,61,0.0,0.0,91,0.00,,,0.00,weatherlink.com 1.10,2013-01-26 00:47:00,
2013-01-25 17:02:00,55.7,54.0,30.08,ENE,61,0.0,0.0,92,0.00,,,0.00,weatherlink.com 1.10,2013-01-26 01:02:00,
2013-01-25 17:17:00,55.2,53.0,30.08,ENE,61,0.0,0.0,92,0.00,,,0.00,weatherlink.com 1.10,2013-01-26 01:17:00,
2013-01-25 17:32:00,54.8,53.0,30.07,ENE,61,0.0,0.0,92,0.00,,,0.00,weatherlink.com 1.10,2013-01-26 01:32:00,
2013-01-25 17:47:00,54.3,52.0,30.08,ENE,61,0.0,0.0,93,0.00,,,0.00,weatherlink.com 1.10,2013-01-26 01:47:00,
2013-01-25 18:02:00,53.9,52.0,30.08,ENE,61,0.0,0.0,93,0.00,,,0.00,weatherlink.com 1.10,2013-01-26 02:02:00,
2013-01-25 18:17:00,53.6,52.0,30.08,ENE,61,0.0,0.0,94,0.00,,,0.00,weatherlink.com 1.10,2013-01-26 02:17:00,
2013-01-25 18:32:00,53.3,52.0,30.09,ENE,61,0.0,0.0,94,0.00,,,0.00,weatherlink.com 1.10,2013-01-26 02:32:00,
2013-01-25 18:47:00,53.0,51.0,30.09,ENE,61,0.0,0.0,94,0.00,,,0.00,weatherlink.com 1.10,2013-01-26 02:47:00,
2013-01-25 19:02:00,52.5,51.0,30.09,ENE,61,0.0,0.0,94,0.00,,,0.00,weatherlink.com 1.10,2013-01-26 03:02:00,
2013-01-25 19:17:00,52.1,51.0,30.09,ENE,61,0.0,0.0,94,0.00,,,0.00,weatherlink.com 1.10,2013-01-26 03:17:00,
2013-01-25 19:32:00,51.7,50.0,30.09,ENE,61,0.0,0.0,94,0.00,,,0.00,weatherlink.com 1.10,2013-01-26 03:32:00,
2013-01-25 19:47:00,51.3,50.0,30.09,ENE,61,0.0,0.0,95,0.00,,,0.00,weatherlink.com 1.10,2013-01-26 03:47:00,
2013-01-25 20:02:00,51.1,50.0,30.08,ENE,61,0.0,0.0,95,0.00,,,0.00,weatherlink.com 1.10,2013-01-26 04:02:00,
2013-01-25 20:17:00,51.2,50.0,30.08,ENE,61,0.0,0.0,95,0.00,,,0.00,weatherlink.com 1.10,2013-01-26 04:17:00,
2013-01-25 20:32:00,51.0,50.0,30.09,ENE,61,0.0,0.0,95,0.00,,,0.00,weatherlink.com 1.10,2013-01-26 04:32:00,
2013-01-25 20:47:00,51.1,50.0,30.08,ENE,61,0.0,0.0,96,0.00,,,0.00,weatherlink.com 1.10,2013-01-26 04:47:00,
2013-01-25 21:02:00,51.0,50.0,30.08,ENE,61,0.0,0.0,96,0.00,,,0.00,weatherlink.com 1.10,2013-01-26 05:02:00,
2013-01-25 21:17:00,50.4,49.0,30.08,ENE,61,0.0,0.0,95,0.00,,,0.00,weatherlink.com 1.10,2013-01-26 05:17:00,
2013-01-25 21:32:00,49.8,49.0,30.09,ENE,61,0.0,0.0,95,0.00,,,0.00,weatherlink.com 1.10,2013-01-26 05:32:00,
2013-01-25 21:47:00,49.4,48.0,30.09,ENE,61,0.0,0.0,95,0.00,,,0.00,weatherlink.com 1.10,2013-01-26 05:47:00,
2013-01-25 22:02:00,48.9,48.0,30.08,ENE,61,0.0,0.0,95,0.00,,,0.00,weatherlink.com 1.10,2013-01-26 06:02:00,
2013-01-25 22:17:00,48.9,48.0,30.08,ENE,61,0.0,0.0,96,0.00,,,0.00,weatherlink.com 1.10,2013-01-26 06:17:00,
2013-01-25 22:32:00,48.7,48.0,30.08,ENE,61,0.0,0.0,96,0.00,,,0.00,weatherlink.com 1.10,2013-01-26 06:32:00,
2013-01-25 22:47:00,48.7,48.0,30.09,ENE,61,0.0,0.0,96,0.00,,,0.00,weatherlink.com 1.10,2013-01-26 06:47:00,
2013-01-25 23:02:00,48.1,47.0,30.08,ENE,61,0.0,0.0,96,0.00,,,0.00,weatherlink.com 1.10,2013-01-26 07:02:00,
2013-01-25 23:17:00,47.9,47.0,30.09,ENE,61,0.0,0.0,96,0.00,,,0.00,weatherlink.com 1.10,2013-01-26 07:17:00,
2013-01-25 23:32:00,47.8,47.0,30.08,ENE,61,0.0,0.0,96,0.00,,,0.00,weatherlink.com 1.10,2013-01-26 07:32:00,
2013-01-25 23:47:00,47.6,47.0,30.08,ENE,61,0.0,0.0,96,0.00,,,0.00,weatherlink.com 1.10,2013-01-26 07:47:00,